DW4219 Weather Reports


Display with metric or nautical units.
time (UTC)temp
F
wind
direction
speed
MPH
gust
MPH
rain 1hr
in
rain 24hr
in
rain mn
in
humidity
%
barometer
mb
20260503011536 69 218 3.0 10.0 0.00 0.00 0.00 14 1014.4
20260503010033 71 214 4.0 12.0 0.00 0.00 0.00 14 1014.5
20260503004536 71 205 6.0 14.0 0.00 0.00 0.00 13 1014.5
20260503003042 71 197 7.0 11.0 0.00 0.00 0.00 13 1014.6
20260503001536 72 267 7.0 19.0 0.00 0.00 0.00 13 1014.6
20260503000027 72 163 9.0 16.0 0.00 0.00 0.00 13 1014.7
20260502234537 72 198 8.0 17.0 0.00 0.00 0.00 13 1014.8
20260502233031 72 181 4.0 10.0 0.00 0.00 0.00 14 1014.9
20260502231521 72 187 6.0 13.0 0.00 0.00 0.00 14 1015.2
20260502230023 72 213 8.0 17.0 0.00 0.00 0.00 12 1015.3
20260502224517 72 229 7.0 14.0 0.00 0.00 0.00 13 1015.7
20260502223020 72 227 7.0 19.0 0.00 0.00 0.00 13 1015.8
20260502221515 71 205 7.0 19.0 0.00 0.00 0.00 15 1016.0
20260502220011 71 166 3.0 16.0 0.00 0.00 0.00 14 1016.3
20260502214507 71 211 9.0 17.0 0.00 0.00 0.00 14 1016.7
20260502213005 72 200 11.0 17.0 0.00 0.00 0.00 14 1017.0
20260502211502 72 225 10.0 17.0 0.00 0.00 0.00 14 1017.3
20260502210108 71 214 9.0 15.0 0.00 0.00 0.00 15 1017.4
20260502204559 70 195 9.0 17.0 0.00 0.00 0.00 15 1017.6
20260502203055 70 251 10.0 22.0 0.00 0.00 0.00 16 1017.9
20260502201552 69 224 9.0 19.0 0.00 0.00 0.00 16 1018.2
20260502200052 68 269 8.0 15.0 0.00 0.00 0.00 17 1018.5
20260502194555 69 241 8.0 17.0 0.00 0.00 0.00 16 1018.7
20260502193048 68 268 5.0 11.0 0.00 0.00 0.00 16 1018.9
20260502191545 69 250 7.0 13.0 0.00 0.00 0.00 17 1019.0
20260502190046 68 223 4.0 15.0 0.00 0.00 0.00 17 1019.4
20260502184540 67 309 2.0 7.0 0.00 0.00 0.00 19 1019.5
20260502183037 67 139 1.0 8.0 0.00 0.00 0.00 20 1019.9
20260502181539 65 67 2.0 6.0 0.00 0.00 0.00 20 1020.2
20260502163019 57 34 0.0 6.0 0.00 0.00 0.00 32 1021.4
20260502161508 55 61 1.0 4.0 0.00 0.00 0.00 33 1021.6
20260502151631 52 38 1.0 5.0 0.00 0.00 0.00 32 1022.2
20260502150113 51 73 1.0 4.0 0.00 0.00 0.00 32 1022.2
20260502123047 30 274 0.0 2.0 0.00 0.00 0.00 61 1021.7
20260502121536 30 245 0.0 3.0 0.00 0.00 0.00 62 1021.7
20260502114533 31 246 0.0 2.0 0.00 0.00 0.00 61 1021.5
20260502113028 31 253 0.0 2.0 0.00 0.00 0.00 61 1021.4
20260502111527 31 254 0.0 2.0 0.00 0.00 0.00 61 1021.6
20260502110024 31 257 0.0 2.0 0.00 0.00 0.00 60 1021.6
20260502104526 31 242 0.0 2.0 0.00 0.00 0.00 61 1021.5
20260502103122 32 276 0.0 1.0 0.00 0.00 0.00 60 1021.5
20260502101516 33 243 0.0 1.0 0.00 0.00 0.00 57 1021.4
20260502091508 34 244 0.0 1.0 0.00 0.00 0.00 57 1021.2
20260502070048 39 229 0.0 3.0 0.00 0.00 0.00 46 1021.0
20260502064541 38 213 1.0 4.0 0.00 0.00 0.00 47 1020.8
20260502063036 39 191 1.0 3.0 0.00 0.00 0.00 44 1020.7
20260502061538 40 221 0.0 2.0 0.00 0.00 0.00 45 1020.5
20260502060029 40 227 0.0 2.0 0.00 0.00 0.00 43 1020.3
20260502054528 41 226 1.0 3.0 0.00 0.00 0.00 42 1020.3
20260502053027 41 209 1.0 3.0 0.00 0.00 0.00 43 1020.3
20260502051526 42 219 0.0 2.0 0.00 0.00 0.00 43 1020.2
20260502050025 42 207 0.0 1.0 0.00 0.00 0.00 42 1019.9
20260502044523 42 174 0.0 0.0 0.00 0.00 0.00 44 1019.8
20260502043024 43 165 1.0 3.0 0.00 0.00 0.00 41 1019.7
20260502041526 44 198 0.0 2.0 0.00 0.00 0.00 42 1019.4
20260502040020 45 170 0.0 2.0 0.00 0.00 0.00 40 1019.1
20260502034520 47 214 0.0 1.0 0.00 0.00 0.00 38 1018.7
20260502033025 48 200 1.0 2.0 0.00 0.00 0.00 36 1018.4
20260502031518 50 158 0.0 2.0 0.00 0.00 0.00 36 1017.7
20260502030018 51 106 0.0 1.0 0.00 0.00 0.00 35 1017.5
20260502024518 52 53 0.0 4.0 0.00 0.00 0.00 36 1017.2
20260502023017 54 32 1.0 5.0 0.00 0.00 0.00 30 1017.1
20260502021516 57 58 2.0 8.0 0.00 0.00 0.00 26 1016.9
20260502020016 60 359 5.0 11.0 0.00 0.00 0.00 24 1016.9
20260502014516 61 73 6.0 11.0 0.00 0.00 0.00 23 1016.7
20260502013015 63 32 5.0 10.0 0.00 0.00 0.00 21 1016.6